Location: ?ejeti?ky
(50.4060°N, 14.9016°E)
Time: 21:14:25
(UTC+00:00)

STARLINK-1353 - Pass Details

Date: 07 June 2020
Orbit: 531 x 535 km, 53.0° (Epoch: 13 July)

Event Time Altitude Azimuth Distance (km) Brightness Sun altitude
Rises 00:31:51 0° 282° (WNW) 2,682 7.0 -14.0°
Reaches altitude 10° 00:34:06 10° 286° (WNW) 1,792 6.2 -13.9°
Maximum altitude 00:38:07 62° 7° (N) 609 4.1 -13.6°
Drops below altitude 10° 00:42:10 10° 89° (E) 1,791 6.6 -13.4°
Sets 00:44:24 0° 93° (E) 2,682 7.4 -13.2°
